Wind_Speed
21 21 21 22 22 22 22 22 22 23 23 23 23 23 24 24 23 22 22 21 22 22 22 21 21 20 19 18 18 17 17 17 17 17 17 17 17 17 17 17 17 17 17
22 22 23 23 23 23 23 23 23 23 23 25 24 24 25 25 25 25 24 24 24 24 24 23 22 22 21 19 18 18 18 18 19 18 18 18 19 19 18 19 19 19 19
23 24 24 23 23 24 24 24 25 25 25 26 26 26 27 27 27 27 26 25 25 25 26 25 23 22 22 21 20 19 20 20 20 20 20 19 19 19 20 20 20 20 20
24 25 25 24 25 25 25 26 27 28 27 27 27 27 28 28 29 28 27 26 26 25 26 26 25 24 23 23 22 22 21 21 21 21 21 21 21 20 21 20 20 21 21
25 25 26 25 26 26 26 27 27 27 28 28 27 27 28 28 29 29 28 27 26 26 26 26 26 25 25 24 24 24 23 23 23 23 22 22 22 22 22 21 21 21 22
26 26 27 27 27 27 27 27 27 28 27 28 28 28 28 29 29 29 28 28 27 27 27 27 27 27 26 26 25 24 24 24 24 24 23 22 22 22 22 22 22 22 22
27 28 28 28 28 28 28 27 28 29 28 28 28 29 29 29 28 29 29 29 28 28 28 28 27 27 27 27 26 25 24 24 23 24 24 24 23 23 23 22 22 22 22
29 29 28 29 29 30 30 29 29 29 29 29 29 28 29 29 29 29 30 30 30 29 29 28 28 28 28 27 26 26 26 25 24 23 24 24 23 23 23 23 22 22 23
29 29 29 30 30 30 31 31 30 30 30 29 29 29 29 28 29 30 30 30 31 30 29 29 28 27 27 27 26 27 26 27 26 24 24 23 23 23 23 24 24 23 24
31 31 31 31 30 31 31 30 31 31 30 29 29 29 30 30 30 30 29 30 31 30 30 29 28 28 27 27 27 26 26 26 26 25 25 24 24 24 23 24 24 24 24
31 31 31 31 32 31 31 31 31 31 30 30 30 29 30 31 31 31 30 30 30 30 29 29 29 28 28 27 26 27 26 26 26 26 25 25 25 25 25 25 25 25 26
30 30 30 30 31 31 31 31 31 31 30 30 30 31 30 30 31 31 31 30 30 29 29 28 28 28 27 27 26 26 27 26 26 26 26 26 27 27 27 27 27 27 26
30 30 30 30 30 30 30 30 31 31 31 30 30 31 31 31 31 31 30 30 29 29 29 28 28 28 28 28 27 27 27 27 26 27 27 28 28 28 28 28 28 28 27
31 31 31 30 30 30 31 30 30 31 31 30 30 30 31 31 31 30 29 28 29 29 30 29 29 29 29 29 28 28 28 27 27 28 28 29 29 29 29 29 29 29 28
31 32 31 31 30 30 31 31 30 30 30 31 31 31 31 31 30 30 29 29 28 29 30 30 30 30 29 29 29 29 29 29 29 29 30 30 29 29 29 29 29 29 29
31 31 31 31 30 30 29 29 30 30 30 31 31 31 32 31 31 30 30 29 29 29 29 30 30 30 30 30 29 29 29 29 29 30 30 30 30 30 29 29 29 29 28
32 31 31 31 31 30 30 29 30 29 29 29 30 30 30 31 30 30 30 29 29 29 29 29 30 30 30 30 30 30 30 29 29 29 29 30 29 30 29 29 29 28 27
31 30 30 31 30 29 29 28 29 29 29 29 28 28 29 29 30 30 31 30 29 29 29 29 29 29 29 29 29 29 29 29 29 29 29 29 29 29 28 28 27 26 26
29 29 30 29 29 28 28 28 28 28 29 28 28 28 28 29 29 29 30 30 30 30 30 29 28 29 29 29 29 29 28 29 29 28 29 29 29 29 28 27 26 24 24
27 27 28 27 27 28 27 27 27 27 27 28 28 28 28 28 29 29 29 30 30 30 30 29 29 28 29 28 28 28 28 28 27 27 27 27 27 27 26 26 25 25 25
24 25 25 25 24 24 24 25 25 26 25 26 26 27 27 28 28 28 28 29 29 29 30 29 29 29 29 29 28 28 27 27 26 26 26 26 26 27 27 27 26 25 25
22 22 22 21 21 22 22 23 24 24 24 25 25 26 27 28 27 27 27 27 28 28 28 29 29 29 29 28 28 28 27 27 26 26 26 26 26 26 26 26 26 25 25
19 19 19 19 19 20 21 21 22 23 23 23 24 25 25 25 25 26 26 26 27 27 27 27 27 27 27 28 28 28 27 27 26 25 26 26 26 25 25 25 25 25 25
18 17 18 18 18 19 19 19 19 19 20 21 21 22 22 23 23 24 25 25 24 24 25 26 27 27 27 27 27 27 26 26 26 25 25 24 24 24 23 23 23 23 23
16 16 17 16 17 18 18 18 18 18 18 18 19 19 20 20 21 22 22 23 24 24 24 25 25 26 26 26 26 26 26 26 26 25 23 23 23 22 22 22 21 21 21
12 12 13 12 13 14 15 15 15 15 15 16 16 17 17 17 17 18 18 19 21 22 22 22 22 23 23 24 24 23 23 23 23 23 22 22 22 21 21 21 20 20 20
Wind_Direction
277 278 278 278 279 277 276 274 274 273 268 265 265 263 260 261 260 262 263 263 261 260 261 261 262 260 257 257 254 252 250 250 253 253 252 252 250 249 250 251 252 251 252
277 278 278 278 278 276 276 276 277 276 273 269 266 264 262 261 261 262 263 263 262 260 260 261 261 260 260 259 257 254 254 254 254 255 255 253 252 251 251 252 252 253 253
275 277 278 278 278 277 275 275 276 276 273 270 267 263 261 262 263 261 262 263 261 260 260 260 260 260 260 260 259 257 256 256 256 257 256 254 254 254 253 252 253 252 255
275 276 278 278 278 278 276 275 276 275 272 269 267 265 263 262 261 260 261 261 260 259 258 257 257 259 259 259 260 259 258 258 258 259 258 256 256 257 255 255 253 255 257
276 276 276 277 278 278 277 276 276 273 272 268 266 267 265 263 260 259 259 261 260 258 258 256 257 257 257 259 259 260 259 259 260 260 260 258 258 258 256 255 255 257 258
277 276 276 276 277 277 277 276 275 273 271 268 266 266 266 263 261 261 260 260 260 258 257 257 258 257 258 258 259 260 260 261 261 260 260 259 258 259 259 258 258 259 260
277 277 277 276 275 275 275 274 274 273 270 269 268 267 265 263 261 261 259 258 258 258 258 258 259 257 257 257 258 259 258 259 261 259 258 258 257 257 258 259 259 260 263
277 277 276 275 274 274 273 273 273 272 270 267 266 265 265 263 261 261 259 258 258 259 260 259 259 258 258 255 256 256 256 258 259 259 259 257 257 257 259 263 262 261 264
276 276 277 277 276 274 273 272 271 269 268 266 265 263 263 260 261 261 260 257 256 257 258 258 258 258 257 256 257 257 258 257 256 257 258 258 259 260 262 264 264 263 265
277 277 278 278 276 275 273 272 271 269 268 266 264 263 262 261 262 261 259 258 256 255 256 257 257 255 255 256 256 256 257 256 255 258 259 259 262 264 265 267 265 264 267
278 278 279 280 276 275 274 272 270 269 268 266 264 264 263 262 263 262 259 257 255 255 256 256 257 256 257 256 255 257 257 256 257 259 259 260 262 265 267 269 268 268 271
278 277 278 279 277 277 276 274 271 269 268 266 264 263 262 262 261 261 257 256 255 256 256 256 255 254 254 255 256 257 258 258 258 259 260 261 262 264 267 269 269 271 272
279 278 279 278 277 277 277 276 273 269 268 266 263 262 263 262 261 262 258 255 253 254 255 255 253 254 253 254 255 257 258 257 259 261 261 262 263 265 269 271 272 273 272
280 280 280 279 277 276 277 276 273 270 267 267 266 264 264 262 261 261 258 256 254 253 254 254 254 253 254 254 255 257 257 258 259 261 261 262 263 266 268 270 271 273 272
279 279 279 278 279 279 277 275 273 270 268 267 267 265 264 263 260 260 258 256 254 254 254 254 253 254 255 256 257 257 257 259 260 261 262 263 264 265 267 268 270 271 272
278 278 279 278 278 277 276 275 274 272 270 269 267 265 264 262 260 259 257 255 255 255 255 255 254 255 255 257 257 258 258 259 260 261 262 264 265 267 268 269 271 272 273
277 277 278 278 278 276 276 276 275 273 272 271 268 266 264 262 262 261 259 257 257 257 256 255 256 255 256 256 257 258 258 259 260 261 263 265 266 267 267 269 270 273 274
277 278 278 277 277 276 276 275 274 273 272 272 270 266 265 264 264 263 261 260 258 258 257 256 255 255 255 257 259 259 259 261 262 262 264 265 265 266 267 268 270 272 273
278 277 278 277 277 277 276 275 273 272 272 271 270 268 267 265 264 263 261 259 258 258 258 256 255 256 257 258 259 261 262 262 263 264 265 264 264 264 265 266 267 270 271
280 280 280 280 278 277 276 274 274 274 272 270 269 269 268 267 265 263 261 261 260 258 257 257 257 257 256 257 258 259 260 262 263 264 264 263 263 265 265 267 267 268 269
282 283 285 282 280 278 277 275 275 274 272 271 269 269 268 268 266 263 261 259 258 257 256 256 257 257 256 256 257 257 259 261 262 263 263 263 264 265 265 265 267 268 267
286 287 287 285 282 281 280 279 278 276 274 274 272 270 270 269 266 264 261 259 257 256 255 255 254 253 254 255 256 256 258 260 261 261 262 263 264 265 265 265 265 266 265
287 287 287 285 282 283 284 283 280 279 277 276 274 272 270 269 267 265 262 259 257 255 255 254 252 251 252 254 255 255 256 258 259 260 260 261 263 263 263 263 263 264 266
293 291 292 287 285 286 288 287 286 283 280 278 276 274 271 269 267 265 263 261 257 255 254 252 252 251 251 253 253 255 255 256 256 256 256 259 259 260 262 263 264 264 266
299 295 295 294 292 292 294 294 293 289 286 284 280 278 275 272 268 266 263 260 257 256 254 253 253 251 250 251 252 252 253 253 253 252 253 256 258 260 261 262 263 265 266
311 305 303 300 298 298 300 302 301 294 290 289 285 282 279 273 267 264 260 258 255 254 255 254 253 252 250 249 248 248 248 247 248 248 250 254 256 258 260 260 262 263 264
Height
5871 5870 5869 5868 5867 5867 5866 5865 5865 5865 5864 5864 5865 5865 5865 5865 5865 5866 5866 5866 5866 5866 5866 5867 5867 5867 5867 5868 5868 5868 5869 5870 5871 5871 5871 5872 5872 5873 5873 5874 5874 5874 5875
5866 5865 5864 5863 5862 5862 5861 5860 5860 5859 5859 5859 5859 5859 5859 5860 5860 5860 5860 5861 5861 5861 5861 5862 5862 5863 5863 5864 5864 5864 5865 5866 5866 5867 5867 5868 5868 5869 5869 5869 5870 5870 5871
5861 5860 5859 5858 5857 5856 5856 5855 5854 5854 5854 5853 5853 5853 5853 5853 5854 5854 5855 5855 5855 5856 5856 5857 5857 5858 5858 5859 5859 5860 5861 5861 5862 5862 5863 5863 5864 5864 5865 5865 5865 5866 5867
5856 5855 5854 5853 5852 5851 5850 5850 5849 5848 5847 5847 5847 5847 5847 5847 5848 5848 5849 5849 5850 5850 5851 5851 5852 5853 5854 5854 5855 5855 5856 5856 5857 5857 5858 5858 5859 5859 5860 5860 5861 5861 5862
5850 5849 5848 5847 5846 5845 5844 5843 5843 5841 5841 5840 5840 5841 5841 5841 5842 5843 5843 5843 5844 5844 5845 5846 5846 5847 5848 5849 5850 5850 5851 5851 5852 5853 5853 5854 5854 5854 5855 5855 5856 5856 5857
5845 5843 5842 5841 5840 5839 5838 5837 5836 5835 5834 5834 5834 5834 5835 5835 5836 5836 5837 5837 5838 5838 5839 5840 5840 5841 5842 5843 5844 5845 5845 5846 5846 5847 5848 5849 5849 5849 5849 5850 5850 5851 5851
5838 5837 5836 5835 5833 5832 5832 5831 5830 5829 5828 5828 5827 5828 5828 5828 5829 5830 5830 5831 5832 5832 5833 5833 5834 5835 5836 5837 5838 5839 5839 5840 5840 5841 5842 5843 5843 5844 5844 5844 5845 5845 5846
5832 5830 5829 5828 5826 5825 5825 5824 5823 5822 5821 5821 5821 5821 5821 5823 5823 5823 5824 5824 5825 5826 5826 5827 5828 5829 5830 5831 5832 5833 5834 5834 5835 5836 5836 5837 5838 5838 5838 5839 5839 5840 5840
5824 5823 5822 5821 5819 5818 5817 5816 5815 5814 5814 5814 5814 5814 5815 5815 5816 5816 5817 5817 5818 5819 5820 5821 5822 5823 5823 5824 5825 5826 5827 5828 5829 5830 5831 5832 5832 5833 5833 5833 5834 5834 5834
5817 5816 5814 5813 5812 5810 5809 5808 5808 5807 5807 5807 5807 5807 5808 5808 5808 5809 5810 5810 5811 5812 5813 5814 5815 5816 5817 5818 5819 5820 5821 5822 5823 5824 5825 5826 5827 5827 5827 5827 5828 5828 5828
5809 5808 5806 5805 5804 5803 5802 5801 5800 5800 5800 5799 5800 5800 5800 5801 5801 5802 5802 5803 5804 5805 5806 5807 5808 5809 5810 5811 5813 5814 5815 5816 5817 5818 5819 5820 5821 5821 5821 5821 5821 5822 5822
5801 5800 5799 5797 5796 5795 5794 5793 5792 5792 5792 5792 5792 5792 5793 5793 5794 5794 5795 5795 5796 5798 5799 5800 5801 5803 5804 5805 5807 5808 5809 5810 5811 5812 5813 5814 5814 5815 5815 5815 5815 5815 5816
5794 5792 5791 5790 5788 5787 5786 5785 5784 5784 5784 5784 5784 5784 5785 5786 5786 5787 5787 5788 5789 5790 5792 5793 5794 5796 5797 5799 5800 5801 5802 5803 5805 5806 5806 5807 5808 5808 5809 5809 5809 5809 5808
5786 5784 5783 5782 5780 5779 5778 5777 5776 5776 5776 5776 5776 5776 5777 5777 5778 5779 5780 5781 5782 5783 5784 5786 5787 5789 5790 5791 5793 5794 5795 5796 5797 5798 5799 5800 5801 5801 5801 5802 5802 5802 5801
5778 5776 5775 5774 5772 5771 5770 5769 5768 5768 5767 5768 5768 5768 5769 5769 5770 5771 5772 5773 5775 5776 5777 5779 5780 5781 5782 5784 5785 5786 5788 5789 5790 5791 5792 5793 5793 5794 5794 5794 5794 5794 5794
5769 5768 5766 5765 5764 5763 5762 5761 5760 5760 5759 5759 5760 5760 5760 5761 5762 5763 5764 5765 5767 5768 5769 5770 5772 5774 5775 5776 5778 5779 5780 5781 5782 5783 5784 5785 5786 5786 5787 5787 5787 5787 5787
5761 5759 5758 5757 5756 5755 5754 5753 5752 5752 5751 5751 5751 5752 5752 5753 5754 5755 5756 5757 5758 5760 5761 5762 5764 5766 5767 5769 5770 5771 5772 5774 5775 5775 5777 5778 5778 5779 5779 5780 5780 5780 5780
5753 5751 5750 5748 5747 5746 5745 5745 5744 5744 5744 5743 5743 5743 5744 5744 5745 5746 5747 5749 5750 5752 5753 5755 5756 5758 5760 5761 5762 5763 5765 5766 5767 5768 5769 5770 5771 5771 5772 5773 5773 5773 5773
5745 5744 5742 5740 5739 5738 5737 5737 5736 5735 5735 5735 5735 5735 5736 5736 5737 5738 5739 5740 5742 5743 5745 5747 5748 5750 5752 5753 5755 5756 5757 5758 5759 5760 5761 5762 5763 5764 5765 5766 5766 5766 5767
5738 5736 5734 5732 5731 5730 5729 5729 5728 5728 5727 5727 5727 5728 5728 5728 5729 5729 5731 5732 5733 5735 5737 5739 5741 5742 5744 5745 5747 5749 5750 5751 5752 5753 5754 5755 5756 5757 5758 5759 5759 5760 5760
5731 5729 5727 5726 5724 5723 5722 5721 5721 5720 5720 5719 5719 5719 5720 5720 5720 5721 5722 5724 5725 5727 5729 5730 5732 5734 5736 5738 5739 5741 5742 5744 5745 5746 5747 5748 5749 5750 5750 5751 5752 5753 5753
5725 5723 5721 5719 5718 5717 5716 5715 5714 5714 5713 5712 5712 5711 5712 5712 5712 5713 5714 5715 5717 5718 5720 5722 5724 5726 5728 5730 5732 5733 5735 5736 5738 5739 5740 5741 5742 5743 5743 5744 5745 5746 5746
5719 5717 5716 5714 5712 5711 5710 5708 5707 5706 5705 5705 5704 5704 5704 5704 5705 5705 5706 5707 5709 5710 5712 5714 5716 5718 5720 5722 5724 5726 5727 5729 5730 5732 5733 5734 5735 5736 5736 5737 5738 5739 5740
5714 5712 5711 5709 5707 5706 5704 5703 5701 5700 5699 5698 5697 5697 5697 5697 5697 5698 5699 5700 5701 5703 5704 5706 5709 5710 5712 5714 5716 5718 5720 5721 5723 5725 5726 5727 5728 5729 5730 5731 5732 5732 5733
5710 5708 5706 5704 5702 5701 5699 5698 5696 5695 5694 5693 5692 5691 5690 5690 5690 5691 5691 5692 5694 5695 5697 5699 5700 5702 5704 5706 5708 5710 5712 5714 5716 5718 5719 5721 5722 5723 5724 5725 5726 5726 5727
5707 5705 5703 5700 5698 5697 5695 5693 5692 5690 5689 5688 5687 5686 5685 5684 5684 5684 5685 5685 5687 5688 5690 5692 5693 5695 5697 5699 5701 5703 5705 5708 5709 5711 5713 5715 5716 5717 5718 5719 5720 5720 5721